When you browse on this site, cookies collect data to enhance your experience and personalize the content and advertising you see.
Visit our Privacy Policy to learn more. By continuing to use the site, you agree to this use of cookies and data.
  • In United Kingdom
  • List of Countries
  • For 7 days
  • Water Temperature
  • Satellite Maps
  • Weather Map
  • Weather Widgets
  • user-avatar
    Login

    Hourly Weather Bristol

    Today, 17 December, Monday

    Time Temperature Precipitation Wind Pressure Humidity
    00:00 +5°C° 0 mm 5 mps 755 mmHg 88%
    01:00 +5°C° 0 mm 4 mps 756 mmHg 88%
    02:00 +5°C° 0 mm 4 mps 756 mmHg 89%
    03:00 +4°C° 0 mm 4 mps 757 mmHg 89%
    04:00 +4°C° 0 mm 4 mps 758 mmHg 89%
    05:00 +4°C° 0 mm 3 mps 758 mmHg 90%
    06:00 +4°C° 0 mm 3 mps 759 mmHg 90%
    07:00 +4°C° 0 mm 3 mps 760 mmHg 90%
    08:00 +4°C° 0 mm 3 mps 760 mmHg 90%
    09:00 +4°C° 0 mm 3 mps 761 mmHg 90%
    10:00 +6°C° 0 mm 4 mps 761 mmHg 87%
    11:00 +7°C° 0 mm 4 mps 761 mmHg 84%
    12:00 +9°C° 0 mm 5 mps 761 mmHg 81%
    13:00 +9°C° 0 mm 5 mps 761 mmHg 83%
    14:00 +9°C° 0 mm 5 mps 761 mmHg 85%
    15:00 +9°C° 0 mm 5 mps 760 mmHg 86%
    16:00 +8°C° 0 mm 5 mps 760 mmHg 88%
    17:00 +8°C° 0 mm 5 mps 760 mmHg 90%
    18:00 +8°C° 0 mm 6 mps 760 mmHg 91%
    19:00 +8°C° 0 mm 6 mps 760 mmHg 91%
    20:00 +9°C° 0 mm 6 mps 760 mmHg 91%
    21:00 +9°C° 0 mm 7 mps 759 mmHg 91%
    22:00 +9°C° 0.1 mm 7 mps 759 mmHg 90%
    23:00 +9°C° 0.1 mm 7 mps 759 mmHg 89%

    Tomorrow, 18 December, Tuesday

    Time Temperature Precipitation Wind Pressure Humidity
    00:00 +10°C° 0.1 mm 7 mps 759 mmHg 88%
    01:00 +10°C° 0.1 mm 8 mps 758 mmHg 87%
    02:00 +10°C° 0.1 mm 8 mps 758 mmHg 87%
    03:00 +10°C° 0.1 mm 8 mps 757 mmHg 87%
    04:00 +8°C° 0.1 mm 9 mps 756 mmHg 86%
    05:00 +8°C° 0.1 mm 9 mps 756 mmHg 85%
    06:00 +8°C° 0.1 mm 9 mps 755 mmHg 85%
    07:00 +8°C° 0.2 mm 10 mps 754 mmHg 84%
    08:00 +8°C° 0.2 mm 10 mps 753 mmHg 83%
    09:00 +8°C° 0.2 mm 11 mps 753 mmHg 82%
    10:00 +7°C° 0.7 mm 11 mps 752 mmHg 83%
    11:00 +7°C° 0.7 mm 11 mps 751 mmHg 83%
    12:00 +7°C° 0.7 mm 11 mps 750 mmHg 83%
    13:00 +7°C° 1.1 mm 11 mps 750 mmHg 85%
    14:00 +7°C° 1.1 mm 10 mps 749 mmHg 86%
    15:00 +7°C° 1.1 mm 10 mps 748 mmHg 87%
    16:00 +7°C° 2.1 mm 9 mps 748 mmHg 88%
    17:00 +7°C° 2.1 mm 9 mps 748 mmHg 89%
    18:00 +7°C° 2.1 mm 8 mps 748 mmHg 90%
    19:00 +8°C° 0.4 mm 7 mps 748 mmHg 90%
    20:00 +7°C° 0.4 mm 5 mps 749 mmHg 89%
    21:00 +7°C° 0.4 mm 4 mps 749 mmHg 88%
    22:00 +6°C° 0 mm 4 mps 750 mmHg 89%
    23:00 +6°C° 0 mm 4 mps 750 mmHg 89%

    Day after tomorrow, 19 December, Wednesday

    Time Temperature Precipitation Wind Pressure Humidity
    00:00 +6°C° 0 mm 4 mps 750 mmHg 89%
    01:00 +6°C° 0.2 mm 4 mps 751 mmHg 90%
    02:00 +6°C° 0.2 mm 4 mps 751 mmHg 91%
    03:00 +7°C° 0.2 mm 3 mps 751 mmHg 91%
    04:00 +7°C° 0.4 mm 3 mps 751 mmHg 91%
    05:00 +7°C° 0.4 mm 3 mps 751 mmHg 91%
    06:00 +7°C° 0.4 mm 3 mps 751 mmHg 91%
    07:00 +7°C° 0 mm 3 mps 752 mmHg 90%
    08:00 +5°C° 0 mm 3 mps 752 mmHg 89%
    09:00 +5°C° 0 mm 3 mps 752 mmHg 89%
    10:00 +7°C° 0 mm 3 mps 753 mmHg 85%
    11:00 +7°C° 0 mm 4 mps 753 mmHg 81%
    12:00 +8°C° 0 mm 5 mps 753 mmHg 78%
    13:00 +7°C° 0.1 mm 4 mps 753 mmHg 79%
    14:00 +7°C° 0.1 mm 4 mps 753 mmHg 80%
    15:00 +7°C° 0.1 mm 4 mps 753 mmHg 81%
    16:00 +6°C° 0.1 mm 4 mps 753 mmHg 82%
    17:00 +6°C° 0.1 mm 4 mps 753 mmHg 84%
    18:00 +5°C° 0.1 mm 4 mps 753 mmHg 85%
    19:00 +5°C° 0.1 mm 4 mps 753 mmHg 85%
    20:00 +5°C° 0.1 mm 5 mps 753 mmHg 86%
    21:00 +5°C° 0.1 mm 5 mps 753 mmHg 86%
    22:00 +5°C° 0 mm 5 mps 753 mmHg 86%
    23:00 +5°C° 0 mm 5 mps 753 mmHg 86%

    20 December, Thursday

    Time Temperature Precipitation Wind Pressure Humidity
    00:00 +5°C° 0 mm 5 mps 752 mmHg 86%
    01:00 +5°C° 0.2 mm 5 mps 752 mmHg 86%
    02:00 +4°C° 0.2 mm 6 mps 752 mmHg 87%
    03:00 +4°C° 0.2 mm 6 mps 752 mmHg 87%
    04:00 +4°C° 0.3 mm 6 mps 753 mmHg 87%
    05:00 +6°C° 0.3 mm 5 mps 753 mmHg 88%
    06:00 +6°C° 0.3 mm 5 mps 753 mmHg 88%
    07:00 +6°C° 0 mm 5 mps 753 mmHg 88%
    08:00 +5°C° 0 mm 5 mps 754 mmHg 89%
    09:00 +5°C° 0 mm 4 mps 754 mmHg 89%
    10:00 +6°C° 0 mm 5 mps 754 mmHg 86%
    11:00 +7°C° 0 mm 5 mps 755 mmHg 83%
    12:00 +8°C° 0 mm 6 mps 755 mmHg 80%
    13:00 +8°C° 0.1 mm 5 mps 755 mmHg 80%
    14:00 +8°C° 0.1 mm 5 mps 755 mmHg 80%
    15:00 +8°C° 0.1 mm 5 mps 756 mmHg 80%
    16:00 +7°C° 0.1 mm 5 mps 756 mmHg 82%
    17:00 +7°C° 0.1 mm 4 mps 756 mmHg 84%
    18:00 +6°C° 0.1 mm 4 mps 756 mmHg 86%
    19:00 +6°C° 0 mm 4 mps 757 mmHg 87%
    20:00 +6°C° 0 mm 4 mps 757 mmHg 88%
    21:00 +6°C° 0 mm 4 mps 757 mmHg 89%
    22:00 +5°C° 0 mm 3 mps 757 mmHg 89%
    23:00 +5°C° 0 mm 3 mps 757 mmHg 90%

    21 December, Friday

    Time Temperature Precipitation Wind Pressure Humidity
    00:00 +5°C° 0 mm 3 mps 757 mmHg 90%
    01:00 +5°C° 0 mm 3 mps 756 mmHg 90%
    02:00 +5°C° 0 mm 3 mps 756 mmHg 90%
    03:00 +5°C° 0 mm 3 mps 755 mmHg 90%
    04:00 +5°C° 0.5 mm 3 mps 754 mmHg 91%
    05:00 +6°C° 0.5 mm 4 mps 754 mmHg 92%
    06:00 +6°C° 0.5 mm 4 mps 753 mmHg 92%
    07:00 +7°C° 1.1 mm 5 mps 752 mmHg 93%
    08:00 +8°C° 1.1 mm 5 mps 752 mmHg 94%
    09:00 +9°C° 1.1 mm 5 mps 751 mmHg 95%
    10:00 +9°C° 0.1 mm 6 mps 752 mmHg 94%
    11:00 +10°C° 0.1 mm 6 mps 752 mmHg 92%
    12:00 +11°C° 0.1 mm 7 mps 752 mmHg 90%
    13:00 +10°C° 0 mm 7 mps 753 mmHg 87%
    14:00 +9°C° 0 mm 6 mps 754 mmHg 83%
    15:00 +8°C° 0 mm 6 mps 755 mmHg 80%
    16:00 +8°C° 0 mm 5 mps 756 mmHg 83%
    17:00 +7°C° 0 mm 4 mps 757 mmHg 86%
    18:00 +6°C° 0 mm 4 mps 757 mmHg 90%
    19:00 +7°C° 0 mm 4 mps 758 mmHg 90%
    20:00 +7°C° 0 mm 4 mps 758 mmHg 91%
    21:00 +7°C° 0 mm 5 mps 758 mmHg 92%
    22:00 +7°C° 0 mm 5 mps 758 mmHg 92%
    23:00 +7°C° 0 mm 5 mps 758 mmHg 91%

    22 December, Saturday

    Time Temperature Precipitation Wind Pressure Humidity
    00:00 +7°C° 0 mm 5 mps 758 mmHg 91%
    01:00 +8°C° 0 mm 5 mps 758 mmHg 92%
    02:00 +8°C° 0 mm 5 mps 758 mmHg 93%
    03:00 +9°C° 0 mm 5 mps 758 mmHg 93%
    04:00 +9°C° 0.1 mm 5 mps 758 mmHg 94%
    05:00 +10°C° 0.1 mm 4 mps 758 mmHg 94%
    06:00 +10°C° 0.1 mm 4 mps 758 mmHg 94%
    07:00 +10°C° 0 mm 4 mps 759 mmHg 95%
    08:00 +10°C° 0 mm 4 mps 759 mmHg 95%
    09:00 +9°C° 0 mm 3 mps 760 mmHg 95%
    10:00 +10°C° 0 mm 4 mps 760 mmHg 93%
    11:00 +11°C° 0 mm 4 mps 761 mmHg 91%
    12:00 +12°C° 0 mm 4 mps 761 mmHg 89%
    13:00 +12°C° 0 mm 4 mps 761 mmHg 89%
    14:00 +12°C° 0 mm 3 mps 761 mmHg 89%
    15:00 +11°C° 0 mm 3 mps 762 mmHg 90%
    16:00 +11°C° 0 mm 3 mps 762 mmHg 91%
    17:00 +10°C° 0 mm 3 mps 762 mmHg 93%
    18:00 +10°C° 0 mm 3 mps 762 mmHg 94%
    19:00 +9°C° 0 mm 3 mps 762 mmHg 95%
    20:00 +9°C° 0 mm 3 mps 762 mmHg 96%
    21:00 +8°C° 0 mm 4 mps 762 mmHg 96%
    22:00 +10°C° 0 mm 4 mps 762 mmHg 97%
    23:00 +11°C° 0 mm 4 mps 762 mmHg 97%
    Show more